Retour au catalogue

YANTAI-2

ActifScienceSSO
NORAD 58918·PAYLOAD·🇨🇳 China
Ce nom de satellite n'a pas encore été confirmé par des sources officielles.

Lancé Feb 3, 2024 depuis South China Sea Launch Area

Loading…

Prochains Passages (prochaines 24 heures)

TLE

FraisSource: Space-Track

Époque: Sep 14, 2026, 23:13 UTC

1 58918U 24024B   26257.96785811  .00006058  00000-0  27322-3 0  9998
2 58918  97.2976 321.5763 0016016 190.1020 169.9897 15.21263235144993

Suivez YANTAI-2 en temps réel avec AllMySat

Download on the App Store